Regional Weather Roundup
Issued by NWS Kansas City/Pleasant Hill, MO

Home | Current Version | Previous Version | Text Only | Print | Product List | Glossary On
Versions: 1 2 3 4 5 6 7 8 9 10 11 12 13 14 15 16 17 18 19 20 21 22 23 24 25 26 27
000
ASUS43 KEAX 262310
RWREAX

WEATHER ROUNDUP FOR EASTERN KANSAS AND NORTHWEST MISSOURI
NATIONAL WEATHER SERVICE KANSAS CITY/PLEASANT HILL MO
600 PM CDT FRI MAY 26 2017

KSZ040-057-103>105-MOZ028-029-037-043-270000-
...KANSAS CITY METROPOLITAN AREA...

CITY           SKY/WX    TMP DP  RH WIND       PRES   REMARKS
K.C. INTL      MOSUNNY   83  64  52 N7        29.77S
K.C. DOWNTOWN  MOSUNNY   85  64  49 N7        29.75S
LEES SUMMIT    SUNNY     81  65  58 NE7       29.77F
OLATHE - IXD   MOSUNNY   83  64  52 NW8       29.78S
OLATHE - OJC   SUNNY     82  63  52 NW3       29.77S
LAWRENCE       SUNNY     85  64  49 NW6       29.76S

$$

MOZ001>008-011>017-020>025-030>033-038>040-044>046-053-054-270000-
...NORTHERN AND CENTRAL MISSOURI...

CITY           SKY/WX    TMP DP  RH WIND       PRES   REMARKS
ST. JOSEPH     SUNNY     84  63  49 NE6       29.76S
MOSBY          MOCLDY    82  59  44 NE6       29.77S
WARRENSBURG    MOSUNNY   81  63  54 CALM      29.77S
WHITEMAN AFB   SUNNY     82  68  63 CALM      29.76S
CLINTON        PTSUNNY   82  66  57 CALM      29.78S
SEDALIA        MOSUNNY   83  69  62 N7        29.79R
WARSAW         NOT AVBL
CHILLICOTHE      N/A     83  63  50 NE6       29.77S
KIRKSVILLE     SUNNY     80  62  54 N8        29.78S

$$

MOZ041-047>049-056>058-063>065-088>090-097-270000-
...EASTERN AND SOUTHERN MISSOURI...

CITY           SKY/WX    TMP DP  RH WIND       PRES   REMARKS
ST. LOUIS INTL CLOUDY    81  66  60 SW12      29.76R
SPIRIT OF STL  CLOUDY    79  69  71 SW7       29.75R
COLUMBIA       CLOUDY    79  67  66 W6        29.78R
JEFFERSON CITY CLOUDY    82  66  58 W6        29.76R
ROLLA          CLOUDY    76  68  76 W6        29.78R
OSAGE BEACH    CLOUDY    78  69  73 CALM      29.79R
SPRINGFIELD    PTSUNNY   82  69  64 W5        29.78R
BRANSON        PTSUNNY   81  68  65 S6        29.80S
JOPLIN         PTSUNNY   85  70  60 NW7       29.77S
WEST PLAINS    CLOUDY    76  67  73 S7        29.82R

$$

IAZ060-094-KSZ022-034>040-054-083-096-NEZ052-066-093-270000-
...KANSAS...SOUTHEAST NEBRASKA AND IOWA...

CITY           SKY/WX    TMP DP  RH WIND       PRES   REMARKS
TOPEKA         SUNNY     83  65  54 N5        29.77R
MANHATTAN      SUNNY     84  61  45 NE7       29.78S
EMPORIA        MOSUNNY   83  64  52 N5        29.78R
CHANUTE        SUNNY     85  64  49 NE5       29.77R
WICHITA        MOSUNNY   86  62  44 NE9       29.78S
OMAHA          MOSUNNY   81  49  32 NW8       29.80S
LINCOLN        SUNNY     81  50  33 NE9G18    29.82S
FALLS CITY     MOSUNNY   83  60  45 VRB5      29.77R
LAMONI         SUNNY     81  62  52 N6        29.77F
DES MOINES     MOSUNNY   83  58  42 N6        29.76F

$$





USA.gov is the U.S. government's official web portal to all federal, state and local government web resources and services.